Location: ????????
(55.1500°N, 39.0667°E)
Time: 13:11:58
(UTC+00:00)

Daily predictions for brighter satellites

Satellite Brightness Start Highest point End
(mag) Time Altitude Azimuth Time Altitude Azimuth Time Altitude Azimuth
Cosmos 1634 Rocket 4.2 13:25:57 10° SSE 13:31:52 50° E 13:37:47 10° NNE
Cosmos 1570 Rocket 4.1 13:27:46 10° NNW 13:33:10 89° ENE 13:38:30 10° SSE
Cosmos 2227 Rocket 2.6 13:28:12 10° NNW 13:33:34 41° NE 13:38:54 10° ESE
Iridium 51 4.5 13:32:07 10° SSE 13:35:00 33° E 13:37:58 10° NNE
Cosmos 1602 Rocket 4.3 13:32:48 10° N 13:36:47 32° ENE 13:40:42 10° SE
Cosmos 1464 Rocket 4.3 13:30:42 10° SSW 13:36:50 71° WNW 13:42:59 10° N
Cosmos 1455 Rocket 3.0 13:33:32 10° S 13:37:52 80° E 13:42:17 10° NNE
Cosmos 2369 Rocket 2.9 13:33:56 10° WSW 13:39:26 51° NW 13:45:01 10° NNE
IRS-1D 4.3 13:35:20 10° S 13:40:11 56° WSW 13:45:03 10° NNW
Cosmos 773 Rocket 4.0 13:36:09 10° NNW 13:41:24 80° ENE 13:46:39 10° SSE
Cosmos 2279 Rocket 4.4 13:37:55 10° SSE 13:43:44 44° E 13:49:36 10° NNE
CZ-2D R/B 4.2 13:42:40 10° ESE 13:44:51 18° ENE 13:47:04 10° NNE
Cosmos 1092 Rocket 4.1 13:39:18 10° NNW 13:45:30 83° W 13:51:38 10° S
Iridium 45 4.2 13:43:54 10° S 13:47:05 89° E 13:50:22 10° N
YAOGAN 1 4.2 13:47:19 10° E 13:49:19 13° NE 13:51:19 10° NNE
NOSS 2-2 (D) 3.9 13:47:27 10° SSW 13:50:18 29° SE 13:52:57 10° ENE
Cosmos 1867 3.6 13:45:19 10° NW 13:50:49 76° NE 13:56:17 10° SE
Cosmos 2278 Rocket 3.9 13:47:10 10° WNW 13:51:12 19° NNW 13:55:15 10° NNE
Cosmos 1697 Rocket 4.1 13:48:13 10° SE 13:51:57 18° E 13:55:41 10° ENE
Intercosmos 24 3.7 13:48:45 10° N 13:52:46 68° ENE 13:56:17 10° SSE
Cosmos 2151 3.3 13:48:53 10° N 13:52:50 40° ENE 13:56:46 10° SE
Cosmos 1607 4.1 13:47:06 10° NW 13:53:21 82° SW 13:59:37 10° SE
Cosmos 1743 2.5 13:52:46 10° N 13:55:55 44° ENE 13:59:03 10° SSE
MOS 1 Rocket 4.1 13:56:59 10° SE 14:01:29 34° ENE 14:06:11 10° N
Cosmos 2084 3.6 13:57:22 10° WSW 14:01:33 65° NNW 14:05:23 12° NE
NOSS 3-2 (A) 3.5 13:56:51 10° SSW 14:01:53 57° SE 14:07:44 11° NE
Cosmos 1900 4.4 13:57:21 10° NW 14:02:28 86° NE 14:07:28 10° SE
NOSS 3-2 (C) 4.2 13:59:26 10° S 14:03:50 29° ESE 14:08:26 12° ENE
IGS 5A 3.3 14:00:00 10° SSE 14:03:55 71° ENE 14:07:55 10° N
SL-08 ROCKET BODY 4.4 13:59:52 10° N 14:05:49 77° ENE 14:11:51 10° SSE
ARIANE 5 R/B 2.7 14:01:33 10° SE 14:06:24 47° ENE 14:11:21 10° N
Cosmos 1356 Rocket 3.5 14:04:12 10° SSW 14:08:16 80° WNW 14:12:25 10° NNE
Cosmos 1825 Rocket 4.1 14:06:02 10° N 14:10:02 34° ENE 14:14:00 10° SE
Cosmos 1656 3.9 14:04:48 10° SSW 14:10:18 57° ESE 14:15:49 10° NE
NOSS 2-2 (E) 3.6 14:07:21 10° SSW 14:10:18 35° SE 14:12:22 15° ENE
Cosmos 2084 Rocket 3.9 14:07:07 10° NW 14:11:18 63° SW 14:15:27 10° SE
SAR-Lupe-4 4.0 14:08:06 10° SE 14:11:23 37° ENE 14:14:42 10° N
Cosmos 1758 Rocket 3.5 14:09:05 10° NNW 14:13:25 87° W 14:17:43 10° S
Resurs 01 Rocket 3.6 14:14:57 11° NE 14:14:57 11° NE 14:15:38 10° NNE
CZ-4C R/B 3.1 14:07:38 10° NW 14:14:12 78° SW 14:22:33 10° SE
Meteor 1-20 Rocket 4.1 14:09:33 10° N 14:15:01 65° ENE 14:20:27 10° SSE
Cosmos 2266 Rocket 4.0 14:09:20 10° N 14:15:28 61° ENE 14:21:28 10° SSE
Cosmos 1782 2.6 14:12:52 10° S 14:16:23 58° E 14:19:57 10° NNE
UNK 4.3 14:13:05 10° NNE 14:17:23 37° E 14:21:38 10° SSE
Cosmos 2098 Rocket 3.3 14:14:41 10° S 14:18:56 57° E 14:23:57 10° NNE
Cosmos 2082 4.3 14:15:23 10° NNW 14:20:37 35° NE 14:25:51 10° ESE
SAR-Lupe-1 4.4 14:18:43 10° SE 14:22:08 42° ENE 14:25:35 10° N
SPOT 1/Viking Rocket 4.1 14:18:20 10° SE 14:23:01 35° ENE 14:27:44 10° N
CBERS-1 4.4 14:20:40 10° S 14:25:45 70° WSW 14:30:54 10° NNW
CZ-2D R/B 4.4 14:22:49 10° ESE 14:26:17 26° ENE 14:29:42 10° N
Cosmos 2297 Rocket 2.9 14:20:49 10° NW 14:26:25 60° WSW 14:31:58 10° SSE
Cosmos 1076 Rocket 4.1 14:24:56 10° N 14:28:53 34° ENE 14:32:50 10° SE
SMAP 3.0 14:24:15 10° SSE 14:28:54 80° ENE 14:33:36 10° NNW
IRS-P3 4.2 14:24:01 10° SE 14:29:10 53° ENE 14:34:20 10° N
Cosmos 405 Rocket 4.2 14:26:14 10° NNW 14:29:11 32° W 14:32:06 10° SSW
NOSS 2-2 (C) 2.7 14:28:59 10° WSW 14:32:03 68° NW 14:33:48 22° NE
Landsat 7 3.7 14:29:07 10° SSE 14:33:45 71° ENE 14:38:24 10° NNW
Cosmos 1538 Rocket 4.2 14:31:33 10° NNW 14:36:43 51° NE 14:41:53 10° SE
SJ-6F 4.4 14:35:52 10° SE 14:39:45 52° ENE 14:43:41 10° N
Meteor 1-28 Rocket 2.8 14:36:37 10° NNE 14:39:56 88° ESE 14:43:16 10° SSW
[s.n.66845] 2.5 14:39:34 10° NNW 14:41:45 29° NNE 14:41:45 29° NNE
[s.n.66847] 2.5 14:40:01 10° NNW 14:42:12 30° NNE 14:42:12 30° NNE
[s.n.66846] 2.5 14:40:26 10° NNW 14:42:37 30° NNE 14:42:37 30° NNE
[s.n.66843] 2.5 14:40:58 10° NNW 14:43:09 30° NNE 14:43:09 30° NNE
[s.n.66844] 2.5 14:41:24 10° NNW 14:43:35 30° NNE 14:43:35 30° NNE
CENTAUR R/B 3.0 14:37:48 10° WSW 14:43:54 64° NNW 14:49:50 18° NE
[s.n.66842] 2.4 14:41:56 10° NNW 14:44:06 30° NNE 14:44:06 30° NNE
[s.n.66841] 2.4 14:42:23 10° NNW 14:44:34 31° NNE 14:44:34 31° NNE
[s.n.66840] 2.4 14:42:52 10° NNW 14:45:03 31° NNE 14:45:03 31° NNE
[s.n.66838] 2.4 14:43:21 10° NNW 14:45:31 31° NNE 14:45:31 31° NNE
[s.n.66839] 2.4 14:43:51 10° NNW 14:46:01 31° NNE 14:46:01 31° NNE
Cosmos 2219 3.4 14:40:45 10° NNW 14:46:23 52° NE 14:51:59 10° SE
SL-16 R/B 2.6 14:40:17 10° NNE 14:46:34 82° WNW 14:52:46 10° SSW
[s.n.66837] 2.4 14:44:18 10° NNW 14:46:28 32° NNE 14:46:28 32° NNE
[s.n.66836] 2.4 14:44:48 10° NNW 14:46:57 32° NNE 14:46:57 32° NNE
[s.n.66835] 2.4 14:45:18 10° NNW 14:47:27 32° NNE 14:47:27 32° NNE
Thor Agena Rocket 4.1 14:42:51 10° S 14:48:00 63° WSW 14:53:08 10° NNW
Cosmos 1606 Rocket 3.8 14:44:02 10° SSE 14:48:15 46° E 14:51:39 15° NNE
[s.n.66834] 2.4 14:45:48 10° NNW 14:47:56 32° NNE 14:47:56 32° NNE
[s.n.66833] 2.4 14:46:14 10° NNW 14:48:22 32° NNE 14:48:22 32° NNE
Cosmos 1315 Rocket 4.5 14:45:53 10° SW 14:49:19 31° WNW 14:52:46 10° N
[s.n.66832] 2.4 14:46:46 10° NNW 14:48:54 33° NNE 14:48:54 33° NNE
Cosmos 1503 Rocket 4.0 14:44:25 10° S 14:49:34 61° ESE 14:53:23 18° NE
[s.n.66831] 2.4 14:47:11 10° NNW 14:49:19 33° NNE 14:49:19 33° NNE
[s.n.66830] 2.4 14:47:37 10° NNW 14:49:44 33° NNE 14:49:44 33° NNE
[s.n.66828] 2.4 14:48:03 10° NNW 14:50:09 33° NNE 14:50:09 33° NNE
[s.n.66829] 2.4 14:48:34 10° NNW 14:50:41 33° NNE 14:50:41 33° NNE
GEOS 3 Rocket 4.0 14:47:48 21° ENE 14:51:11 51° SE 14:56:25 10° SSW
USA 281 4.4 14:49:00 19° NE 14:51:13 22° NNE 14:56:01 10° NNW
[s.n.66827] 2.4 14:49:06 10° NNW 14:51:12 34° NNE 14:51:12 34° NNE
[s.n.66826] 2.4 14:49:36 10° NNW 14:51:42 34° NNE 14:51:42 34° NNE
[s.n.66825] 2.4 14:50:02 10° NNW 14:52:08 34° NNE 14:52:08 34° NNE
[s.n.66824] 2.4 14:50:33 10° NNW 14:52:38 34° NNE 14:52:38 34° NNE
[s.n.66823] 2.4 14:51:04 10° NNW 14:53:08 34° NNE 14:53:08 34° NNE
Cosmos 1844 Rocket 3.6 14:48:50 10° NNW 14:53:47 29° NE 14:55:40 24° ENE
[s.n.66822] 2.3 14:51:33 10° NNW 14:53:38 35° NNE 14:53:38 35° NNE
[s.n.66821] 2.3 14:52:01 10° NNW 14:54:05 35° NNE 14:54:05 35° NNE
Cosmos 1980 Rocket 3.2 14:50:34 10° SSE 14:55:05 25° ESE 14:56:11 24° E
Meteor 1-25 Rocket 4.3 14:49:32 10° NNW 14:55:25 85° WSW 15:01:12 10° S
Meteor 1-5 Rocket 4.0 14:50:29 10° N 14:55:49 70° ENE 15:01:15 10° SSE
Cosmos 1544 Rocket 4.1 14:53:11 10° SSW 14:57:33 58° WNW 15:01:57 10° N
AQUARIUS 4.0 14:53:27 10° SSE 14:57:52 87° ENE 15:02:19 10° NNW
Cosmos 1354 Rocket 4.1 14:54:04 10° S 14:59:10 53° ESE 15:02:16 23° NE
Resurs 1-3 3.9 14:56:29 10° SE 15:00:30 41° ENE 15:04:35 10° N
Cosmos 2263 Rocket 2.1 14:55:56 10° NNW 15:01:38 81° NE 15:07:21 10° SE
Lacrosse 5 rocket 1.1 14:59:17 10° W 15:03:00 67° N 15:04:06 41° ENE
USA 238 DEB 4.4 14:59:19 10° S 15:04:31 29° ESE 15:06:19 25° E
USA 238 4.4 14:59:27 10° S 15:04:38 29° ESE 15:06:26 25° E
Cosmos 1777 Rocket 3.9 15:00:37 10° SSW 15:05:52 88° ESE 15:09:43 19° NNE
Spot 4 Rocket 4.1 15:00:57 10° SE 15:05:55 54° ENE 15:10:55 10° N
Lacrosse 4 Rocket 3.0 15:02:51 10° W 15:06:14 25° NNW 15:08:19 17° NNE
USA 215 3.2 15:06:28 25° E 15:10:34 77° N 15:17:08 10° W
Cosmos 1726 Rocket 3.7 15:07:40 10° S 15:12:13 59° E 15:14:56 23° NNE
Okean 1-7 Rocket 4.3 15:08:06 10° NNW 15:12:24 54° W 15:16:39 10° S
Cosmos 44 Rocket 3.9 15:08:45 10° NW 15:13:35 41° NNE 15:14:56 35° ENE
CZ-2D R/B 3.9 15:13:31 10° S 15:16:32 43° W 15:19:35 10° NNW
NOSS 2-3 (E) 4.2 15:13:53 10° S 15:16:49 30° SE 15:16:49 30° SE
Cosmos 2227 Rocket 2.9 15:12:19 10° NW 15:17:49 55° WSW 15:23:18 10° S
NOSS 2-3 (D) 4.3 15:14:38 10° S 15:17:27 29° SE 15:17:27 29° SE
Cosmos 1943 Rocket 4.0 15:14:58 10° NNW 15:18:14 16° N 15:19:30 15° NNE
Cosmos 923 Rocket 4.1 15:13:32 10° NNW 15:18:38 51° NE 15:20:52 30° ESE
SKYMED 2 3.8 15:21:36 45° E 15:22:03 47° E 15:26:15 10° S
Cosmos 1461 2.6 15:19:42 10° SW 15:23:37 85° SE 15:24:22 57° NE
Cosmos 1933 3.3 15:20:26 10° SSW 15:24:16 76° WNW 15:26:20 26° N
YAOGAN 1 2.4 15:20:11 10° SSE 15:24:24 67° ENE 15:28:40 10° N
Cosmos 2369 Rocket 4.0 15:20:32 10° WNW 15:24:47 21° NNW 15:28:01 14° NNE
Cosmos-2242 4.2 15:21:39 10° SSE 15:23:49 26° SE 15:23:49 26° SE
Cosmos 1486 Rocket 4.5 15:20:30 10° SW 15:25:39 58° WNW 15:29:25 19° NNE
Cosmos 1655 Rocket 4.0 15:20:21 10° NNW 15:26:38 84° W 15:32:51 10° S
BREEZE-M DEB (TANK) 4.1 15:23:27 10° WSW 15:26:44 41° S 15:33:52 15° ESE
Cosmos 2360 4.5 15:22:27 10° SW 15:28:09 67° NW 15:31:46 23° NNE
Meteor 2-10 4.0 15:26:34 10° NNW 15:31:56 85° ENE 15:37:27 10° SSE
NOAA 15 4.5 15:28:11 10° SSE 15:33:29 86° ENE 15:38:49 10° NNW
Cosmos 1697 Rocket 2.6 15:29:28 10° SSW 15:35:05 82° ESE 15:37:32 35° NE
Cosmos 990 Rocket 3.8 15:32:00 10° SSW 15:37:08 84° ESE 15:39:11 38° NNE
Cosmos 2278 Rocket 3.9 15:33:56 10° NNW 15:37:31 17° N 15:38:10 16° NNE
Cosmos 1953 Rocket 3.9 15:34:05 10° NNW 15:38:30 66° W 15:42:55 10° S
Aureole 1 Rocket 3.6 15:34:31 10° S 15:39:02 49° ESE 15:39:12 49° E
MOS 1 Rocket 4.4 15:34:30 10° S 15:39:20 50° W 15:44:28 10° NNW
NOSS 2-2 (D) 3.8 15:36:28 10° W 15:39:04 37° NW 15:39:04 37° NW
Cosmos 494 Rocket 4.4 15:39:25 10° NNW 15:44:00 44° NE 15:44:00 44° NE
ARIANE 5 R/B 4.2 15:40:59 10° SSW 15:45:36 35° W 15:50:19 10° NNW
Resurs 01 Rocket 3.3 15:52:21 21° N 15:52:21 21° N 15:53:56 10° N
Cosmos 1680 Rocket 3.4 15:45:58 10° NNW 15:51:11 65° ENE 15:51:29 63° E
USA 81 4.1 15:46:34 10° N 15:51:52 77° W 15:57:07 10° S
NOAA 6 3.9 15:47:34 10° SSE 15:52:40 85° ENE 15:57:48 10° NNW
NOSS 3-2 (A) 3.8 15:47:22 10° WSW 15:52:46 54° NNW 15:55:04 36° NNE
NOSS 3-2 (C) 3.3 15:48:37 10° SW 15:53:57 80° NW 15:55:51 46° NE
IRAS Rocket 4.3 15:51:45 10° SSE 15:57:14 78° WSW 16:02:46 10° NNW
Cosmos 1844 3.8 15:52:45 10° NNW 15:57:58 52° NE 15:57:58 52° NE
Meteor 2-2 Rocket 4.1 15:52:48 10° S 15:58:22 66° E 15:58:57 62° ENE
Gbstr 26 Del rocket 4.0 15:54:58 10° SW 15:57:35 31° SSW 15:57:35 31° SSW
CZ-2D R/B 4.3 15:56:55 10° S 16:01:00 49° W 16:05:02 10° NNW
SPOT 1/Viking Rocket 4.4 15:57:13 10° S 16:02:15 49° W 16:07:20 10° NNW
Cosmos 2082 3.9 15:59:27 10° NW 16:05:09 69° WSW 16:08:44 23° SSE
SL-19 R/B 4.5 15:59:48 10° S 16:05:13 69° WSW 16:10:59 10° NNW
PSLV R/B 4.0 16:06:53 35° SSW 16:08:20 55° WSW 16:12:21 10° NNW
COSMO-SKYMED 1 4.1 16:12:53 25° SSW 16:12:53 25° SSW 16:14:39 10° SSW
Cosmos 2227 4.1 16:08:17 10° NNW 16:13:46 74° NNE 16:13:46 74° NNE
Cosmos 2058 Rocket 3.6 16:10:02 10° SSW 16:13:33 54° SW 16:13:33 54° SW
Meteor 2-11 Rocket 4.3 16:08:37 10° NNW 16:14:49 89° ENE 16:21:00 10° S
Meteor 1-26 Rocket 4.0 16:17:50 10° SSW 16:23:10 83° W 16:23:10 83° W
Cosmos 1553 Rocket 3.9 16:22:05 10° S 16:28:17 89° WNW 16:30:07 50° N
GEOS 3 Rocket 4.0 16:28:51 56° NNW 16:29:15 58° NNW 16:34:31 10° WSW
SL-16 R/B 4.4 16:24:32 10° N 16:29:22 24° NW 16:34:11 10° W
Cosmos 2219 4.4 16:25:06 10° NW 16:30:27 41° WSW 16:35:46 10° S
USA 281 3.7 16:35:52 44° NNE 16:35:52 44° NNE 16:40:51 10° NNW
CENTAUR R/B 3.5 16:29:13 10° WNW 16:35:46 46° N 16:36:56 43° NNE
Cosmos 1844 Rocket 3.0 16:32:40 10° NW 16:37:20 62° NW 16:37:20 62° NW
Cosmos 1980 Rocket 2.3 16:32:53 10° SW 16:37:58 69° WSW 16:37:58 69° WSW
Lacrosse 5 rocket 3.7 16:36:32 10° WNW 16:37:41 19° WNW 16:37:41 19° WNW
Cosmos 1745 Rocket 3.9 16:34:08 10° NNW 16:40:05 81° NW 16:40:05 81° NW
Cosmos 2263 Rocket 4.3 16:40:32 10° NW 16:44:58 24° WSW 16:49:25 10° SSW
Lacrosse 4 Rocket 4.2 16:43:18 10° NW 16:43:48 11° NNW 16:43:48 11° NNW
USA 215 3.2 16:53:49 80° SW 16:53:49 80° SW 17:00:14 10° WNW
USA 238 DEB 3.7 16:48:23 10° SW 16:53:47 69° SW 16:53:47 69° SW
USA 238 3.7 16:48:29 10° SW 16:53:53 69° SW 16:53:53 69° SW
Cosmos 1943 Rocket 4.3 16:59:22 10° NNW 17:00:59 17° NNW 17:00:59 17° NNW
Cosmos 2369 Rocket 4.4 17:07:27 10° NW 17:09:47 16° N 17:09:47 16° N
Cosmos 1697 Rocket 4.2 17:14:42 10° W 17:19:16 31° NW 17:19:16 31° NW
Cosmos 2278 Rocket 4.4 17:18:31 10° NNW 17:19:58 17° NNW 17:19:58 17° NNW
CENTAUR R/B 4.3 18:20:22 10° NW 18:24:02 32° NW 18:24:02 32° NW
